Point Petre, Ontario

12:42 AM EST on November 23, 2017 (GMT -0500)
Point Petre

Weather History for CWQP - October, 2012

Change the Weather History Date:

Wednesday, October 17, 2012

  Actual Average (CYTR) Record (CYTR)
Temperature  
Mean Temperature 48 °F -  
Max Temperature 61 °F 53 °F 64 °F (2007)
Min Temperature 35 °F 37 °F 28 °F (2017)
Degree Days  
Heating Degree Days 17    
Moisture  
Dew Point 46 °F    
Average Humidity 73    
Maximum Humidity 92    
Minimum Humidity 58    
Precipitation  
Precipitation 0.00 in - - ()
Sea Level Pressure  
Sea Level Pressure 29.87 in    
Wind  
Wind Speed 10 mph ()    
Max Wind Speed 23 mph    
Max Gust Speed -    
Averages and records for this station are not official NWS values.
T = Trace of Precipitation, MM = Missing Value Source: Averaged Metar Reports

Daily Weather History Graph

Daily Weather History Graph

Search for Another Location

Airport or City:

Trip Planner

Search our weather history database for the weather conditions in past years. The results will help you decide how hot, cold, wet, or windy it might be!

Date:

Astronomy

Oct. 17, 2012 Rise Set
Actual Time 7:26 AM EDT 6:20 PM EDT
Civil Twilight 6:56 AM EDT 6:49 PM EDT
Nautical Twilight 6:23 AM EDT 7:23 PM EDT
Astronomical Twilight 5:50 AM EDT 7:56 PM EDT
Moon 10:03 AM EDT (10/17) 7:48 PM EDT (10/17)
Length of Visible Light 11h 53m
Length of Day
10h 54m
Waxing Crescent, 7% of the Moon is Illuminated
Oct 17
Waxing Crescent
Oct 21
First Quarter
Oct 29
Full
Nov 6
Last Quarter
Nov 13
New

Hourly Weather History & Observations

Time (EDT) Temp. Windchill Dew Point Humidity Pressure Visibility Wind Dir Wind Speed Gust Speed Precip Events Conditions
12:00 AM 38.3 °F 34.8 °F 36.1 °F 92% 29.90 in - North 4.6 mph - N/A   Unknown
2:00 AM 40 °F - 36 °F 82% 29.92 in - North 2.3 mph - -  
2:00 AM 39.6 °F - 36.3 °F 88% 29.92 in - North 2.3 mph - N/A   Unknown
3:00 AM 39.0 °F 34.8 °F 34.5 °F 84% 29.90 in - ENE 5.8 mph - N/A   Unknown
4:00 AM 41.5 °F 35.9 °F 37.6 °F 86% 29.91 in - SW 9.2 mph - N/A   Unknown
5:00 AM 49 °F - 44 °F 79% 29.91 in - SSW 10.4 mph - -  
5:00 AM 49.5 °F - 44.4 °F 83% 29.91 in - SSW 10.4 mph - N/A   Unknown
6:00 AM 51.1 °F - 44.6 °F 78% 29.91 in - South 12.7 mph - N/A   Unknown
7:00 AM 51.6 °F - 43.9 °F 75% 29.92 in - South 10.4 mph - N/A   Unknown
8:00 AM 52 °F - 46 °F 73% 29.91 in - SSE 15.0 mph - -  
8:00 AM 52.2 °F - 45.9 °F 79% 29.91 in - SSE 15.0 mph - N/A   Unknown
9:00 AM 52.9 °F - 45.3 °F 75% 29.92 in - SSE 15.0 mph - N/A   Unknown
10:00 AM 53.8 °F - 46.0 °F 75% 29.91 in - South 17.3 mph - N/A   Unknown
11:00 AM 55 °F - 45 °F 61% 29.91 in - South 16.1 mph - -  
11:00 AM 55.0 °F - 45.3 °F 70% 29.91 in - South 16.1 mph - N/A   Unknown
12:00 PM 55.2 °F - 47.3 °F 75% 29.89 in - South 17.3 mph - N/A   Unknown
1:00 PM 57.2 °F - 47.7 °F 70% 29.87 in - South 18.4 mph - N/A   Unknown
2:00 PM 59 °F - 48 °F 58% 29.85 in - SSE 16.1 mph - -  
2:00 PM 59.0 °F - 48.2 °F 67% 29.85 in - SSE 16.1 mph - N/A   Unknown
3:00 PM 59.9 °F - 48.7 °F 67% 29.83 in - SE 13.8 mph - N/A   Unknown
4:00 PM 59.0 °F - 50.2 °F 73% 29.81 in - ESE 11.5 mph - N/A   Unknown
5:00 PM 60 °F - 50 °F 61% 29.82 in - East 8.1 mph - -  
5:00 PM 59.5 °F - 50.2 °F 71% 29.82 in - East 8.1 mph - N/A   Unknown
6:00 PM 59.2 °F - 52.2 °F 78% 29.82 in - East 9.2 mph - N/A   Unknown
7:00 PM 60.4 °F - 51.1 °F 71% 29.82 in - ESE 15.0 mph - N/A   Unknown
8:00 PM 60 °F - 51 °F 63% 29.82 in - ESE 17.3 mph - -  
8:00 PM 60.1 °F - 50.7 °F 71% 29.82 in - ESE 17.3 mph - N/A   Unknown
9:00 PM 59.5 °F - 51.1 °F 74% 29.82 in - SE 20.7 mph - N/A   Unknown
10:00 PM 60.6 °F - 50.0 °F 68% 29.81 in - SSE 21.9 mph - N/A   Unknown
11:00 PM 60 °F - 50 °F 60% 29.82 in - SSE 23.0 mph - -  
11:00 PM 60.1 °F - 49.6 °F 68% 29.82 in - SSE 23.0 mph - N/A   Unknown